Location: Aldenham
(51.6667°N, 0.3500°W)
Time: 17:28:53
(UTC+00:00)

Vanguard 2 Rocket - Pass Details

Date: 19 February 2026
Orbit: 553 x 3286 km, 32.9° (Epoch: 11 March)

Event Time Altitude Azimuth Distance (km) Brightness Sun altitude
Rises 16:58:39 0° 266° (W) 6,421 13.0 2.8°
Reaches altitude 10° 17:05:03 10° 252° (WSW) 4,875 13.2 1.9°
Maximum altitude 17:12:49 19° 215° (SW) 3,449 10.8 0.7°
Drops below altitude 10° 17:18:34 10° 175° (S) 3,442 10.1 -0.1°
Sets 17:22:02 0° 157° (SSE) 4,006 10.1 -0.6°
